Change the Weather History Date:

Sunday, October 7, 2012

  Actual Average Record
Temperature  
Mean Temperature 44 °F 45 °F  
Max Temperature 48 °F 53 °F 70 °F (2005)
Min Temperature 39 °F 37 °F 24 °F (2011)
Degree Days  
Heating Degree Days 21    
Month to date heating degree days 89  
Since 1 July heating degree days 451  
Cooling Degree Days 0    
Month to date cooling degree days 0  
Year to date cooling degree days 203  
Moisture  
Dew Point 39 °F    
Average Humidity 85    
Maximum Humidity 96    
Minimum Humidity 71    
Precipitation  
Precipitation T in 0.09 in 0.53 in (2010)
Month to date precipitation 1.06 0.61  
Year to date precipitation 24.94 26.19  
Sea Level Pressure  
Sea Level Pressure 29.88 in    
Wind  
Wind Speed 7 mph (West)    
Max Wind Speed 18 mph    
Max Gust Speed 24 mph    
Visibility 10 miles    
Events Rain    
T = Trace of Precipitation, MM = Missing Value Source: NWS Daily Summary

Daily Weather History Graph

Daily Weather History Graph

Search for Another Location

Airport or City:

Trip Planner

Search our weather history database for the weather conditions in past years. The results will help you decide how hot, cold, wet, or windy it might be!

Date:

Astronomy

Oct. 07, 2012 Rise Set
Actual Time 6:41 AM EDT 6:00 PM EDT
Civil Twilight 6:10 AM EDT 6:30 PM EDT
Nautical Twilight 5:34 AM EDT 7:05 PM EDT
Astronomical Twilight 4:59 AM EDT 7:41 PM EDT
Moon 10:52 PM EDT (10/7) 1:32 PM EDT (10/7)
Length of Visible Light 12h 20m
Length of Day
11h 18m
Waning Gibbous, 56% of the Moon is Illuminated
Oct 7
Waning Gibbous
Oct 8
Last Quarter
Oct 15
New
Oct 21
First Quarter
Oct 29
Full

Hourly Weather History & Observations

Time (EDT) Temp. Windchill Dew Point Humidity Pressure Visibility Wind Dir Wind Speed Gust Speed Precip Events Conditions
12:09 AM 42.8 °F 39.3 °F 41.0 °F 93% 29.70 in 10.0 mi South 5.8 mph - N/A   Scattered Clouds
12:43 AM 42.8 °F 39.3 °F 41.0 °F 93% 29.71 in 10.0 mi SSW 5.8 mph - N/A   Mostly Cloudy
12:51 AM 42.8 °F 40.1 °F 41.0 °F 93% 29.72 in 10.0 mi SSW 4.6 mph - N/A   Mostly Cloudy
12:53 AM 42.1 °F 37.7 °F 41.0 °F 96% 29.72 in 10.0 mi SSW 6.9 mph - N/A   Mostly Cloudy
1:14 AM 42.8 °F 39.3 °F 41.0 °F 93% 29.72 in 10.0 mi South 5.8 mph - N/A   Mostly Cloudy
1:53 AM 43.0 °F 39.5 °F 41.0 °F 93% 29.73 in 10.0 mi WSW 5.8 mph - N/A   Mostly Cloudy
2:18 AM 42.8 °F 36.2 °F 39.2 °F 87% 29.73 in 10.0 mi West 12.7 mph - N/A   Partly Cloudy
2:53 AM 43.0 °F 36.0 °F 39.9 °F 89% 29.75 in 10.0 mi West 13.8 mph - N/A   Clear
3:53 AM 42.1 °F 36.1 °F 39.0 °F 89% 29.78 in 10.0 mi WSW 10.4 mph - N/A   Partly Cloudy
4:53 AM 41.0 °F 39.0 °F 39.0 °F 93% 29.81 in 10.0 mi WSW 3.5 mph - N/A   Partly Cloudy
5:25 AM 42.8 °F 40.1 °F 39.2 °F 87% 29.80 in 10.0 mi WSW 4.6 mph - N/A   Mostly Cloudy
5:53 AM 42.1 °F 35.7 °F 39.0 °F 89% 29.83 in 10.0 mi West 11.5 mph 16.1 mph N/A   Mostly Cloudy
6:02 AM 41.0 °F 35.8 °F 39.2 °F 93% 29.82 in 10.0 mi West 8.1 mph - N/A   Scattered Clouds
6:53 AM 41.0 °F 33.9 °F 39.0 °F 93% 29.86 in 10.0 mi West 12.7 mph - N/A   Clear
7:53 AM 43.0 °F 37.2 °F 39.0 °F 86% 29.88 in 10.0 mi WSW 10.4 mph - N/A   Clear
8:53 AM 46.0 °F 39.9 °F 39.9 °F 79% 29.92 in 10.0 mi West 13.8 mph 20.7 mph N/A   Clear
9:53 AM 46.0 °F 39.3 °F 39.0 °F 76% 29.94 in 10.0 mi West 16.1 mph 21.9 mph N/A   Mostly Cloudy
10:09 AM 42.8 °F 36.2 °F 39.2 °F 87% 29.93 in 10.0 mi NNW 12.7 mph - 0.00 in Rain Light Rain
10:53 AM 42.1 °F 37.1 °F 37.9 °F 85% 29.96 in 10.0 mi NW 8.1 mph - 0.00 in   Overcast
11:53 AM 44.1 °F 40.1 °F 39.9 °F 85% 29.97 in 10.0 mi NW 6.9 mph - 0.00 in   Overcast
12:29 PM 44.6 °F 41.4 °F 39.2 °F 81% 29.95 in 10.0 mi West 5.8 mph - N/A   Overcast
12:53 PM 48.0 °F - 39.0 °F 71% 29.95 in 10.0 mi Variable 4.6 mph - N/A   Mostly Cloudy
1:53 PM 46.9 °F - 39.0 °F 74% 29.96 in 10.0 mi West 4.6 mph - N/A   Overcast
2:53 PM 46.9 °F - 39.0 °F 74% 29.97 in 10.0 mi West 3.5 mph - N/A   Overcast
3:53 PM 46.0 °F 41.9 °F 37.9 °F 73% 29.97 in 10.0 mi NW 8.1 mph - 0.00 in   Overcast
4:53 PM 45.0 °F 43.5 °F 39.0 °F 80% 29.98 in 10.0 mi NW 3.5 mph - N/A   Overcast
5:53 PM 44.1 °F 39.0 °F 39.0 °F 82% 30.00 in 10.0 mi West 9.2 mph - 0.00 in Rain Light Rain
6:53 PM 43.0 °F 39.5 °F 37.0 °F 80% 30.01 in 10.0 mi West 5.8 mph - 0.00 in   Overcast
7:53 PM 43.0 °F 38.2 °F 36.0 °F 76% 30.02 in 10.0 mi WSW 8.1 mph - N/A   Overcast
8:53 PM 42.1 °F 39.2 °F 36.0 °F 79% 30.02 in 10.0 mi WNW 4.6 mph - N/A   Overcast
9:53 PM 41.0 °F 39.0 °F 36.0 °F 82% 30.01 in 10.0 mi WNW 3.5 mph - N/A   Overcast
10:53 PM 39.9 °F 35.8 °F 36.0 °F 86% 30.01 in 10.0 mi South 5.8 mph - N/A   Scattered Clouds
11:53 PM 39.9 °F 37.8 °F 36.0 °F 86% 30.01 in 10.0 mi WSW 3.5 mph - N/A   Overcast